FW3734 Weather Reports


time (UTC)temp
C
wind
direction
speed
KPH
gust
KPH
rain 1hr
cm
rain 24hr
cm
rain mn
cm
humidity
%
barometer
mb
20260505233057 7 31 3.2 16.1 0.25 0.91 0.91 91 1009.8
20260505231547 8 42 3.2 14.5 0.10 0.71 0.71 91 1010.4
20260505230049 8 348 0.0 14.5 0.08 0.71 0.71 91 1009.8
20260505224547 8 333 1.6 14.5 0.08 0.71 0.71 90 1009.7
20260505223044 8 19 0.0 8.0 0.03 0.66 0.66 90 1009.2
20260505221541 8 17 0.0 6.4 0.00 0.64 0.64 90 1009.5
20260505220044 8 12 0.0 11.3 0.03 0.64 0.64 90 1009.3
20260505214540 8 29 1.6 14.5 0.03 0.64 0.64 90 1009.6
20260505213045 8 42 1.6 12.9 0.03 0.64 0.64 90 1009.6
20260505211542 8 11 4.8 14.5 0.03 0.64 0.64 89 1009.6
20260505210035 8 58 1.6 9.7 0.00 0.61 0.61 88 1010.2
20260505204535 8 42 0.0 16.1 0.00 0.61 0.61 87 1010.1
20260505203037 8 332 3.2 12.9 0.00 0.61 0.61 86 1010.1
20260505201534 8 24 9.7 24.1 0.00 0.61 0.61 86 1009.7
20260505200029 8 355 1.6 19.3 0.00 0.61 0.61 85 1010.5
20260505194528 9 11 4.8 17.7 0.00 0.61 0.61 84 1010.3
20260505193026 9 342 4.8 16.1 0.00 0.61 0.61 82 1010.5
20260505191527 10 350 3.2 19.3 0.00 0.61 0.61 80 1010.2
20260505190035 10 5 9.7 22.5 0.00 0.61 0.61 78 1009.9
20260505184528 10 344 3.2 19.3 0.00 0.84 0.61 79 1009.7
20260505183026 11 75 0.0 8.0 0.00 0.84 0.61 81 1010.4
20260505181523 11 16 0.0 12.9 0.00 0.84 0.61 81 1010.3
20260505180033 11 320 0.0 20.9 0.00 0.84 0.61 80 1010.5
20260505174521 11 10 0.0 16.1 0.03 0.86 0.61 80 1010.5
20260505173019 11 283 0.0 1.6 0.03 0.86 0.61 81 1010.5
20260505171519 11 355 0.0 6.4 0.03 0.86 0.61 79 1010.5
20260505170018 12 19 0.0 8.0 0.03 0.86 0.61 77 1010.0
20260505164515 12 61 0.0 6.4 0.00 0.86 0.58 75 1009.6
20260505163015 12 22 0.0 11.3 0.00 0.86 0.58 73 1009.7
20260505161516 12 87 0.0 8.0 0.00 0.86 0.58 75 1009.6
20260505153011 11 19 0.0 17.7 0.00 0.86 0.58 79 1009.1
20260505151510 11 340 6.4 19.3 0.00 0.86 0.58 82 1009.1
20260505130111 8 91 8.0 14.5 0.18 0.81 0.53 89 1008.4
20260505124604 9 342 1.6 17.7 0.30 0.71 0.46 87 1009.9
20260505123109 9 11 6.4 22.5 0.25 0.64 0.36 87 1009.4
20260505121549 10 10 9.7 24.1 0.25 0.64 0.36 88 1009.0
20260505120054 10 21 8.0 16.1 0.25 0.64 0.36 87 1008.7
20260505114546 11 319 3.2 20.9 0.13 0.43 0.15 85 1008.8
20260505113038 11 259 1.6 19.3 0.08 0.38 0.10 85 1007.8
20260505111535 11 355 6.4 19.3 0.08 0.38 0.10 84 1007.2
20260505101518 15 17 4.8 17.7 0.03 0.30 0.03 85 1006.5
20260505100014 15 348 6.4 22.5 0.03 0.30 0.03 83 1006.0
20260505094510 17 360 0.0 16.1 0.00 0.28 0.00 76 1006.1
20260505093006 17 11 0.0 0.0 0.00 0.28 0.00 73 1005.2
20260505091505 17 92 0.0 0.0 0.00 0.28 0.00 72 1005.1
20260505090004 17 110 0.0 0.0 0.00 0.28 0.00 72 1005.1
20260505084503 17 141 0.0 0.0 0.00 0.28 0.00 72 1004.9
20260505083112 17 137 0.0 0.0 0.00 0.28 0.00 72 1005.0
20260505081603 18 87 0.0 0.0 0.00 0.28 0.00 69 1005.1
20260505074552 19 344 0.0 1.6 0.00 0.28 0.00 63 1005.7
20260505073056 19 142 0.0 0.0 0.00 0.28 0.00 63 1005.6
20260505071605 19 14 1.6 16.1 0.00 0.28 0.00 61 1005.6
20260505070051 20 12 4.8 25.7 0.00 0.28 0.00 61 1005.9
20260505064541 20 255 0.0 4.8 0.00 0.28 0.00 63 1004.5
20260505063048 20 184 0.0 6.4 0.00 0.28 0.00 62 1004.4
20260505061539 20 223 0.0 14.5 0.00 0.28 0.00 62 1004.4
20260505060053 20 225 0.0 14.5 0.00 0.28 0.00 61 1004.2
20260505054533 21 204 0.0 9.7 0.00 0.28 0.00 61 1004.1
20260505053032 21 218 0.0 9.7 0.00 0.28 0.00 60 1003.9
20260505051528 21 197 0.0 9.7 0.00 0.28 0.00 60 1003.6
20260505041526 21 214 0.0 12.9 0.00 0.28 0.28 59 1003.3
20260505040025 21 215 0.0 11.3 0.00 0.28 0.28 58 1003.7
20260505034524 22 197 0.0 4.8 0.00 0.28 0.28 57 1003.7
20260505033023 22 187 0.0 12.9 0.00 0.28 0.28 57 1003.8
20260505031522 22 196 0.0 3.2 0.00 0.28 0.28 55 1003.8
20260505030022 22 208 0.0 3.2 0.00 0.28 0.28 55 1003.7
20260505024521 22 198 0.0 3.2 0.00 0.28 0.28 55 1003.5
20260505023021 22 213 0.0 4.8 0.00 0.28 0.28 55 1003.2
20260505021521 22 209 0.0 0.0 0.00 0.28 0.28 55 1002.9
20260505020030 23 201 0.0 0.0 0.00 0.28 0.28 55 1002.6
20260505014531 23 201 0.0 0.0 0.00 0.28 0.28 54 1002.2
20260505013026 23 217 0.0 0.0 0.00 0.28 0.28 53 1002.2
20260505011524 23 207 0.0 1.6 0.00 0.28 0.28 52 1002.2
20260505010018 23 235 0.0 3.2 0.00 0.28 0.28 52 1002.0
20260505004518 24 153 0.0 3.2 0.00 0.28 0.28 51 1001.7
20260505003024 25 213 0.0 1.6 0.00 0.28 0.28 51 1001.6
20260505001515 25 214 0.0 0.0 0.00 0.28 0.28 50 1001.6
20260505000016 25 201 0.0 8.0 0.00 0.28 0.28 50 1001.6
20260504234516 26 228 0.0 8.0 0.00 0.28 0.28 49 1001.4